Location: Betzi
(47.2343°N, 9.5260°E)
Time: 22:38:23
(UTC+00:00)

IDEFIX/ARIANE 42P - Pass Details

Date: 27 May 2022
Orbit: 785 x 802 km, 98.5° (Epoch: 29 June)

Event Time Altitude Azimuth Distance (km) Brightness Sun altitude
Rises 01:09:37 0° 19° (NNE) 3,325 7.5 -17.1°
Reaches altitude 10° 01:12:05 10° 26° (NNE) 2,390 6.4 -16.9°
Maximum altitude 01:17:07 44° 98° (E) 1,106 3.4 -16.5°
Enters shadow 01:21:09 15° 166° (SSE) 2,023 4.3 -16.2°
